Location: Zilina
(0.0000°N, 18.7333°E)
Time: 08:31:29
(UTC+01:00)

Daily predictions for brighter satellites

Satellite Brightness Start Highest point End
(mag) Time Altitude Azimuth Time Altitude Azimuth Time Altitude Azimuth
Ariane H10+ 2.7 18:06:21 10° W 18:10:26 87° S 18:23:58 10° E
Cosmos 990 Rocket 3.9 18:13:34 10° N 18:18:40 73° ENE 18:23:47 10° SSE
CSL-04 Rocket 3.7 18:13:10 10° SSE 18:18:43 73° ENE 18:24:11 10° N
SJ 16-02 2.2 18:18:17 10° NNE 18:22:07 29° ENE 18:25:57 10° SE
CZ-2C R/B 4.0 18:17:40 10° N 18:22:10 77° WNW 18:26:47 10° SSW
ARIANE 5 R/B 4.4 18:17:55 10° W 18:22:42 86° S 18:47:01 10° E
ARIANE 5 R/B 1.9 18:22:19 10° W 18:24:42 72° N 18:32:38 10° E
Cosmos 1709 Rocket 4.0 18:21:03 10° N 18:27:13 70° E 18:33:20 10° S
Cosmos 1633 4.4 18:24:03 10° SSW 18:27:27 37° W 18:30:49 10° NNW
CSL-04 Debris 4.2 18:22:40 10° SSE 18:28:07 88° ENE 18:33:35 10° NNW
Ariane H10-3 4.4 18:22:23 10° W 18:28:42 86° N 18:38:06 10° E
Cosmos 2084 Rocket 4.4 18:26:45 10° NNE 18:30:03 23° ENE 18:33:21 10° ESE
Cosmos 2298 Rocket 4.3 18:28:08 10° N 18:33:11 44° ENE 18:38:13 10° SSE
Hubble Space Telescope 2.8 18:31:01 10° N 18:33:12 14° NNE 18:35:21 10° ENE
ARIANE 5 R/B 2.0 18:28:53 10° W 18:37:47 84° S 18:39:56 14° E
Cosmos 1862 Rocket 4.3 18:34:16 10° NNW 18:38:30 56° W 18:42:44 10° S
Envisat 3.0 18:37:29 10° SSE 18:42:28 56° ENE 18:47:24 10° N
Ariane H10-3 4.0 18:28:13 10° W 18:44:52 83° N 18:47:39 17° E
Ariane H10+ 3.8 18:19:47 10° W 18:45:44 82° S 18:49:53 15° E
Milstar 3 2.9 18:38:29 10° NW 18:47:32 73° NNE 18:54:01 10° ESE
Cosmos 2074 Rocket 4.5 18:45:32 10° NNE 18:51:13 37° E 18:56:56 10° SSE
CZ-4 R/B 3.7 18:50:50 10° SSW 18:54:04 26° WSW 18:57:19 10° NW
MONITOR-E 3.8 18:52:27 10° SSE 18:55:21 72° E 18:58:14 10° N
Cosmos 2184 Rocket 4.4 18:49:54 10° NNE 18:55:43 40° E 19:01:30 10° SSE
GPS 2-15 Rocket1 3.9 18:51:44 10° W 18:56:24 48° SSW 19:00:35 12° SE
Genesis I 3.8 18:53:36 10° S 18:57:11 37° ESE 18:58:48 25° ENE
YAOGAN 6 2.7 18:54:21 10° SSE 18:57:46 48° E 19:01:11 10° N
ATLAS 2A CENTAUR R/B 3.1 18:55:43 10° W 18:59:01 55° NNW 19:07:19 16° NE
BREEZE-M DEB 3.6 18:56:59 10° NNW 18:58:59 46° NE 18:58:59 46° NE
Cosmos 1602 4.1 18:55:36 10° SSE 18:59:10 38° E 19:01:22 20° NE
MOS 1 4.4 18:55:05 10° SSE 19:00:30 49° ENE 19:05:55 10° N
ATLAS CENTAUR R/B 4.2 18:57:20 10° WNW 19:00:48 22° WSW 19:04:05 10° SSW
YAOGAN 1 4.2 18:57:12 10° S 19:01:12 37° WSW 19:05:10 10° NW
COSMOS 2455 4.2 18:59:40 10° NNE 19:02:18 18° NE 19:02:18 18° NE
Cosmos 2278 Rocket 2.7 19:03:16 10° SSW 19:08:50 60° WNW 19:14:23 10° N
Cosmos 2098 Rocket 3.1 19:07:05 10° N 19:11:58 52° E 19:15:50 10° SSE
USA 229 DEB 4.4 19:08:55 10° NNW 19:16:19 64° WSW 19:23:45 10° SSE
USA 229 4.3 19:09:01 10° NNW 19:16:25 65° WSW 19:23:53 10° SSE
NOSS 3-1 (A) 4.2 19:10:27 10° NNW 19:18:59 63° ENE 19:27:32 10° SSE
Cosmos 1812 3.0 19:18:49 10° N 19:22:37 68° W 19:26:26 10° S
Okean 1-7 3.4 19:21:57 10° NNW 19:26:08 62° W 19:30:20 10° S
USA 234 3.6 19:27:09 38° ENE 19:28:11 40° NE 19:34:12 10° NNW
GPS 2-14 Rocket1 2.7 19:24:47 10° WNW 19:28:34 67° N 19:28:34 67° N
CZ-2D R/B 3.7 19:26:31 10° S 19:30:17 59° WSW 19:34:02 10° NNW
Cosmos 2297 3.7 19:25:40 10° S 19:31:11 56° ESE 19:31:57 51° ENE
Ariane H10-3 2.4 19:28:42 10° W 19:31:23 62° S 19:32:43 43° ESE
Intelsat 5-1 Rocket 3.6 19:14:07 10° WSW 19:33:32 89° SSE 19:36:18 43° ENE
Cosmos 372 Rocket 4.1 19:30:09 10° NNW 19:35:22 72° WSW 19:40:34 10° S
Cosmos 1125 Rocket 3.3 19:31:20 10° N 19:36:36 73° ENE 19:41:53 10° SSE
Ariane H10-3 3.2 19:34:04 10° WSW 19:37:28 59° SSE 19:40:11 38° ESE
Cosmos 2221 Rocket 3.5 19:34:46 10° N 19:39:19 88° W 19:43:53 10° S
H-2A R/B 3.2 19:36:59 10° SW 19:40:25 28° SSW 19:40:25 28° SSW
GEOS 3 Rocket 3.6 19:36:49 10° SSE 19:42:08 81° WSW 19:47:25 10° NNW
COBE Rocket 3.8 19:45:22 80° NNE 19:45:39 86° E 19:50:43 10° S
Cosmos 2154 Rocket 3.9 19:40:17 10° N 19:46:34 68° E 19:52:52 10° S
Cosmos 2112 Rocket 4.5 19:43:32 10° S 19:47:28 48° SSE 19:47:28 48° SSE
Delta 198 4.1 19:45:06 10° WSW 19:50:44 77° SSE 19:50:55 76° SE
Cosmos 1680 Rocket 3.5 19:45:46 10° S 19:50:35 74° S 19:50:35 74° S
Meteor 1-11 Rocket 3.9 19:50:05 10° S 19:54:32 57° S 19:54:32 57° S
BLOCK DM-SL R/B 4.3 19:23:20 10° W 19:57:44 89° N 19:59:42 58° E
Ariane H10 4.1 19:51:20 10° W 20:03:36 42° NNW 20:03:36 42° NNW
Hubble Space Telescope 3.6 20:10:19 10° WNW 20:10:45 13° WNW 20:10:45 13° WNW
SPELTRA 4.5 20:09:48 10° W 20:14:22 31° NW 20:14:22 31° NW
USA 215 3.4 20:19:29 70° SW 20:19:29 70° SW 20:25:12 10° SW
Ariane H10 4.3 20:16:58 10° W 20:30:57 55° SW 20:30:57 55° SW
